Tiempo cada hora Dabie

Hoy, 22 Junio, Martes

Tiempo Temperatura Precipitaciones Viento Presión Humedad
00:00 +20°C° 0.1 mm 3 mps 752 mmHg 95%
01:00 +19°C° 0.1 mm 2 mps 752 mmHg 96%
02:00 +19°C° 0 mm 3 mps 752 mmHg 96%
03:00 +18°C° 0 mm 3 mps 752 mmHg 97%
04:00 +18°C° 0 mm 3 mps 753 mmHg 98%
05:00 +18°C° 0 mm 4 mps 753 mmHg 95%
06:00 +18°C° 0 mm 4 mps 754 mmHg 93%
07:00 +17°C° 0 mm 5 mps 754 mmHg 90%
08:00 +19°C° 0 mm 5 mps 755 mmHg 86%
09:00 +19°C° 0 mm 5 mps 755 mmHg 82%
10:00 +20°C° 0 mm 5 mps 756 mmHg 79%
11:00 +19°C° 0 mm 5 mps 756 mmHg 78%
12:00 +19°C° 0 mm 5 mps 756 mmHg 78%
13:00 +19°C° 0 mm 5 mps 756 mmHg 78%
14:00 +17°C° 0.1 mm 5 mps 756 mmHg 79%
15:00 +17°C° 0.1 mm 4 mps 757 mmHg 81%
16:00 +16°C° 0.1 mm 3 mps 757 mmHg 83%
17:00 +16°C° 0 mm 3 mps 757 mmHg 81%
18:00 +16°C° 0 mm 3 mps 757 mmHg 80%
19:00 +16°C° 0 mm 2 mps 758 mmHg 78%
20:00 +15°C° 0 mm 2 mps 758 mmHg 80%
21:00 +15°C° 0 mm 2 mps 758 mmHg 82%
22:00 +14°C° 0 mm 2 mps 758 mmHg 84%
23:00 +13°C° 0 mm 2 mps 758 mmHg 86%

Mañana, 23 Junio, Miércoles

Tiempo Temperatura Precipitaciones Viento Presión Humedad
00:00 +13°C° 0 mm 2 mps 759 mmHg 88%
01:00 +13°C° 0 mm 2 mps 759 mmHg 90%
02:00 +12°C° 0 mm 2 mps 759 mmHg 92%
03:00 +11°C° 0 mm 3 mps 759 mmHg 93%
04:00 +11°C° 0 mm 3 mps 759 mmHg 95%
05:00 +13°C° 0 mm 3 mps 759 mmHg 91%
06:00 +16°C° 0 mm 3 mps 760 mmHg 86%
07:00 +17°C° 0 mm 4 mps 760 mmHg 81%
08:00 +18°C° 0 mm 3 mps 760 mmHg 78%
09:00 +19°C° 0 mm 3 mps 760 mmHg 74%
10:00 +20°C° 0 mm 3 mps 760 mmHg 70%
11:00 +20°C° 0 mm 3 mps 760 mmHg 67%
12:00 +21°C° 0 mm 3 mps 760 mmHg 65%
13:00 +22°C° 0 mm 3 mps 760 mmHg 62%
14:00 +22°C° 0 mm 3 mps 760 mmHg 63%
15:00 +22°C° 0 mm 3 mps 760 mmHg 63%
16:00 +22°C° 0 mm 3 mps 761 mmHg 64%
17:00 +21°C° 0 mm 3 mps 761 mmHg 69%
18:00 +20°C° 0 mm 3 mps 761 mmHg 74%
19:00 +19°C° 0 mm 2 mps 761 mmHg 79%
20:00 +18°C° 0 mm 2 mps 761 mmHg 84%
21:00 +16°C° 0 mm 2 mps 761 mmHg 89%
22:00 +15°C° 0 mm 2 mps 761 mmHg 94%
23:00 +15°C° 0 mm 2 mps 761 mmHg 94%

Pasado mañana, 24 Junio, Jueves

Tiempo Temperatura Precipitaciones Viento Presión Humedad
00:00 +14°C° 0 mm 1 mps 761 mmHg 94%
01:00 +14°C° 0 mm 1 mps 761 mmHg 94%
02:00 +14°C° 0 mm 1 mps 761 mmHg 94%
03:00 +14°C° 0 mm 1 mps 761 mmHg 94%
04:00 +14°C° 0 mm 1 mps 760 mmHg 94%
05:00 +15°C° 0 mm 1 mps 760 mmHg 90%
06:00 +17°C° 0 mm 2 mps 760 mmHg 85%
07:00 +19°C° 0 mm 2 mps 761 mmHg 81%
08:00 +20°C° 0 mm 2 mps 760 mmHg 74%
09:00 +21°C° 0 mm 2 mps 760 mmHg 68%
10:00 +23°C° 0 mm 2 mps 760 mmHg 62%
11:00 +22°C° 0 mm 3 mps 760 mmHg 60%
12:00 +24°C° 0 mm 3 mps 760 mmHg 59%
13:00 +24°C° 0 mm 3 mps 760 mmHg 57%
14:00 +24°C° 0 mm 3 mps 760 mmHg 60%
15:00 +22°C° 0 mm 4 mps 759 mmHg 62%
16:00 +22°C° 0 mm 4 mps 759 mmHg 64%
17:00 +20°C° 0 mm 4 mps 759 mmHg 70%
18:00 +19°C° 0 mm 4 mps 759 mmHg 75%
19:00 +18°C° 0 mm 4 mps 759 mmHg 80%
20:00 +17°C° 0 mm 3 mps 759 mmHg 81%
21:00 +17°C° 0 mm 3 mps 759 mmHg 81%
22:00 +17°C° 0 mm 2 mps 759 mmHg 82%
23:00 +17°C° 0 mm 2 mps 758 mmHg 82%

25 Junio, Viernes

Tiempo Temperatura Precipitaciones Viento Presión Humedad
00:00 +17°C° 0 mm 2 mps 758 mmHg 82%
01:00 +17°C° 0 mm 3 mps 758 mmHg 82%
02:00 +17°C° 0 mm 3 mps 757 mmHg 81%
03:00 +17°C° 0 mm 3 mps 757 mmHg 80%
04:00 +15°C° 0 mm 4 mps 757 mmHg 80%
05:00 +17°C° 0 mm 4 mps 757 mmHg 79%
06:00 +17°C° 0 mm 3 mps 757 mmHg 79%
07:00 +17°C° 0 mm 3 mps 757 mmHg 78%
08:00 +18°C° 0 mm 4 mps 757 mmHg 78%
09:00 +17°C° 0 mm 5 mps 757 mmHg 78%
10:00 +17°C° 0 mm 5 mps 757 mmHg 78%
11:00 +17°C° 0.2 mm 5 mps 757 mmHg 79%
12:00 +17°C° 0.2 mm 5 mps 758 mmHg 81%
13:00 +17°C° 0.2 mm 5 mps 758 mmHg 82%
14:00 +17°C° 0.1 mm 5 mps 758 mmHg 81%
15:00 +17°C° 0.1 mm 5 mps 758 mmHg 81%
16:00 +17°C° 0.1 mm 5 mps 758 mmHg 81%
17:00 +17°C° 0 mm 5 mps 758 mmHg 81%
18:00 +18°C° 0 mm 4 mps 758 mmHg 81%
19:00 +18°C° 0 mm 4 mps 758 mmHg 81%
20:00 +17°C° 0 mm 4 mps 758 mmHg 83%
21:00 +17°C° 0 mm 4 mps 758 mmHg 84%
22:00 +17°C° 0 mm 3 mps 758 mmHg 85%
23:00 +16°C° 0.1 mm 3 mps 758 mmHg 87%

26 Junio, Sábado

Tiempo Temperatura Precipitaciones Viento Presión Humedad
00:00 +16°C° 0.1 mm 3 mps 758 mmHg 89%
01:00 +16°C° 0.1 mm 3 mps 758 mmHg 91%
02:00 +16°C° 0.1 mm 3 mps 758 mmHg 93%
03:00 +14°C° 0.1 mm 3 mps 758 mmHg 94%
04:00 +14°C° 0.1 mm 3 mps 758 mmHg 96%
05:00 +16°C° 0.1 mm 3 mps 758 mmHg 94%
06:00 +17°C° 0.1 mm 4 mps 758 mmHg 92%
07:00 +17°C° 0.1 mm 4 mps 758 mmHg 91%
08:00 +18°C° 0.2 mm 4 mps 759 mmHg 88%
09:00 +19°C° 0.2 mm 5 mps 759 mmHg 85%
10:00 +19°C° 0.2 mm 5 mps 759 mmHg 82%
11:00 +20°C° 0.2 mm 5 mps 759 mmHg 78%
12:00 +20°C° 0.2 mm 5 mps 759 mmHg 74%
13:00 +21°C° 0.2 mm 6 mps 759 mmHg 69%
14:00 +21°C° 0.1 mm 5 mps 759 mmHg 68%
15:00 +21°C° 0.1 mm 5 mps 759 mmHg 68%
16:00 +21°C° 0.1 mm 5 mps 759 mmHg 67%
17:00 +21°C° 0 mm 4 mps 759 mmHg 70%
18:00 +20°C° 0 mm 3 mps 759 mmHg 72%
19:00 +19°C° 0 mm 3 mps 759 mmHg 75%
20:00 +18°C° 0 mm 3 mps 759 mmHg 81%
21:00 +17°C° 0 mm 2 mps 759 mmHg 86%
22:00 +16°C° 0 mm 2 mps 759 mmHg 91%
23:00 +15°C° 0 mm 2 mps 759 mmHg 92%

27 Junio, Domingo

Tiempo Temperatura Precipitaciones Viento Presión Humedad
00:00 +15°C° 0 mm 2 mps 759 mmHg 92%
01:00 +15°C° 0 mm 2 mps 759 mmHg 93%
02:00 +15°C° 0 mm 2 mps 759 mmHg 93%
03:00 +14°C° 0 mm 2 mps 759 mmHg 94%
04:00 +14°C° 0 mm 2 mps 759 mmHg 94%
05:00 +16°C° 0 mm 3 mps 759 mmHg 88%
06:00 +17°C° 0 mm 3 mps 759 mmHg 81%
07:00 +19°C° 0 mm 3 mps 759 mmHg 74%
08:00 +20°C° 0 mm 3 mps 759 mmHg 68%
09:00 +23°C° 0 mm 2 mps 759 mmHg 61%
10:00 +24°C° 0 mm 2 mps 759 mmHg 54%
11:00 +25°C° 0 mm 2 mps 759 mmHg 51%
12:00 +26°C° 0 mm 2 mps 759 mmHg 48%
13:00 +27°C° 0 mm 2 mps 759 mmHg 45%
14:00 +27°C° 0 mm 2 mps 758 mmHg 45%
15:00 +27°C° 0 mm 2 mps 758 mmHg 46%
16:00 +27°C° 0 mm 2 mps 758 mmHg 46%
17:00 +26°C° 0 mm 2 mps 758 mmHg 54%
18:00 +25°C° 0 mm 3 mps 758 mmHg 61%
19:00 +24°C° 0 mm 3 mps 758 mmHg 68%
20:00 +22°C° 0 mm 3 mps 758 mmHg 71%
21:00 +20°C° 0 mm 3 mps 758 mmHg 73%
22:00 +19°C° 0 mm 4 mps 758 mmHg 76%
23:00 +19°C° 0 mm 3 mps 758 mmHg 76%
Mostrar más

Necesitamos Su Consentimiento

Meteoprog y nuestros Proveedores de Servicios pueden almacenar y acceder a sus datos personales como cookies, identificadores de dispositivo u otras tecnologías similares de su dispositivo y procesar dichos datos para personalizar contenido y anuncios, además de ofrecer funciones de redes sociales y analizar el tráfico.

  • Almacenar y/o acceder a información en su dispositivo

    Se puede almacenar o acceder a cookies, identificadores de dispositivo u otra información de su dispositivo para los fines anteriormente indicados.

  • Anuncios y contenido personalizados, medición de anuncios y contenido, percepciones del público, y desarrollo de productos

    Los anuncios y el contenido pueden personalizarse en base a su perfil. Se pueden añadir más datos para personalizar mejor los anuncios y contenidos. Se puede medir el rendimiento de los anuncios y contenidos. Se puede obtener la percepción sobre el público que ha visto los anuncios y contenidos. Dichos datos pueden usarse para desarrollar o mejorar la experiencia del usuario, sistemas y software.

Al hacer clic en ‘Estoy De Acuerdo’ usted permitirá el uso de las cookies, identificadores de dispositivo, balizas web u otras tecnologías similares indicadas. Su configuración puede cambiarse desde el navegador de su dispositivo.

Para ciertos fines, los intereses legítimos pueden ser considerados por encima del consentimiento. Puede leer más sobre ello en nuestra Política de Privacidad y Cookies.